CW2195 Weather Reports


Display with metric or nautical units.
time (UTC)temp
F
wind
direction
speed
MPH
gust
MPH
rain 1hr
in
rain 24hr
in
rain mn
in
humidity
%
barometer
mb
20260507215003 64 252 3.0 6.0 0.00 0.02 0.00 55 1010.7
20260507214503 64 346 1.0 3.0 0.00 0.02 0.00 59 1010.7
20260507214003 64 235 1.0 8.0 0.00 0.02 0.00 60 1010.7
20260507213503 63 225 3.0 8.0 0.00 0.02 0.00 60 1010.6
20260507213003 62 184 3.0 8.0 0.00 0.02 0.00 62 1010.6
20260507212503 62 249 2.0 6.0 0.00 0.02 0.00 63 1010.6
20260507212002 62 215 2.0 5.0 0.00 0.02 0.00 66 1010.6
20260507211503 62 191 2.0 5.0 0.00 0.02 0.00 66 1010.6
20260507211003 61 205 2.0 5.0 0.00 0.02 0.00 66 1010.6
20260507210503 61 172 0.0 6.0 0.00 0.02 0.00 65 1010.5
20260507210004 62 231 2.0 8.0 0.00 0.02 0.00 66 1010.5
20260507205503 63 195 3.0 8.0 0.00 0.02 0.00 64 1010.5
20260507205003 64 206 4.0 8.0 0.00 0.02 0.00 63 1010.4
20260507203504 64 188 5.0 12.0 0.00 0.02 0.00 61 1010.4
20260507203004 63 343 2.0 8.0 0.00 0.02 0.00 63 1010.3
20260507202502 63 0 1.0 7.0 0.00 0.02 0.00 64 1010.4
20260507201503 63 183 2.0 7.0 0.00 0.02 0.00 66 1010.5
20260507201003 62 164 1.0 7.0 0.00 0.02 0.00 69 1010.6
20260507200009 60 231 2.0 7.0 0.00 0.03 0.00 72 1010.6
20260507195503 60 170 2.0 7.0 0.00 0.03 0.00 72 1011.0
20260507194003 59 193 3.0 7.0 0.00 0.03 0.00 71 1011.4
20260507193503 59 253 1.0 5.0 0.00 0.03 0.00 71 1011.5
20260507193003 59 311 3.0 5.0 0.00 0.03 0.00 72 1011.6
20260507192503 59 354 2.0 5.0 0.00 0.03 0.00 73 1011.7
20260507191502 58 283 1.0 3.0 0.00 0.03 0.00 73 1011.6
20260507191003 57 339 1.0 3.0 0.00 0.03 0.00 75 1011.7
20260507190503 57 242 1.0 3.0 0.00 0.03 0.00 73 1011.6
20260507190004 58 246 1.0 3.0 0.00 0.03 0.00 76 1011.7
20260507185503 57 342 0.0 2.0 0.00 0.03 0.00 75 1011.9
20260507185003 57 342 0.0 3.0 0.00 0.03 0.00 76 1011.9
20260507184502 57 342 1.0 3.0 0.00 0.03 0.00 75 1012.0
20260507183503 57 336 1.0 3.0 0.00 0.03 0.00 77 1012.0
20260507183003 57 290 0.0 3.0 0.00 0.03 0.00 76 1012.0
20260507182503 57 290 1.0 3.0 0.00 0.03 0.00 78 1012.1
20260507181504 58 55 0.0 2.0 0.00 0.03 0.00 80 1012.0
20260507181004 57 25 0.0 2.0 0.00 0.03 0.00 80 1011.8
20260507180503 57 19 0.0 1.0 0.00 0.03 0.00 79 1012.2
20260507180003 57 19 0.0 1.0 0.00 0.03 0.00 79 1012.0
20260507175503 57 9 0.0 2.0 0.00 0.03 0.00 79 1012.0
20260507175003 57 9 0.0 5.0 0.00 0.03 0.00 78 1012.1
20260507174003 57 0 1.0 3.0 0.00 0.03 0.00 79 1012.0
20260507173503 57 69 1.0 3.0 0.00 0.03 0.00 79 1012.0
20260507173004 56 43 0.0 3.0 0.00 0.03 0.00 78 1012.2
20260507172503 56 0 2.0 5.0 0.00 0.03 0.00 78 1012.4
20260507172006 57 355 2.0 6.0 0.00 0.03 0.00 77 1012.3
20260507171503 57 332 3.0 10.0 0.00 0.03 0.00 77 1012.3
20260507170504 57 353 2.0 8.0 0.00 0.03 0.00 78 1012.3
20260507170003 57 357 3.0 9.0 0.00 0.03 0.00 78 1012.4
20260507164504 57 349 3.0 6.0 0.00 0.03 0.00 79 1012.3
20260507164004 57 350 2.0 5.0 0.00 0.03 0.00 79 1012.2
20260507163503 57 355 0.0 5.0 0.00 0.03 0.00 79 1012.1
20260507163003 58 16 0.0 3.0 0.00 0.03 0.00 80 1012.3
20260507162503 57 15 0.0 5.0 0.00 0.03 0.00 78 1012.3
20260507161503 57 343 2.0 6.0 0.00 0.03 0.00 79 1012.3
20260507161003 57 352 1.0 5.0 0.00 0.03 0.00 79 1012.3
20260507160503 57 0 1.0 3.0 0.00 0.03 0.00 79 1012.4
20260507160003 57 351 1.0 3.0 0.00 0.03 0.00 79 1012.4
20260507155503 57 8 2.0 7.0 0.00 0.03 0.00 79 1012.4
20260507155003 57 355 2.0 8.0 0.00 0.03 0.00 78 1012.5
20260507154003 58 346 2.0 5.0 0.00 0.03 0.00 76 1012.6
20260507153504 58 10 1.0 3.0 0.00 0.03 0.00 76 1012.6
20260507153003 58 357 2.0 5.0 0.00 0.03 0.00 76 1012.6
20260507152504 58 38 1.0 6.0 0.00 0.03 0.00 76 1012.5
20260507152003 58 357 1.0 6.0 0.00 0.03 0.00 75 1012.6
20260507151504 58 15 1.0 6.0 0.00 0.03 0.00 75 1012.5
20260507151003 58 2 1.0 6.0 0.00 0.03 0.00 76 1012.6
20260507150503 58 37 2.0 8.0 0.00 0.03 0.00 76 1012.5
20260507150004 58 355 1.0 8.0 0.00 0.03 0.00 75 1012.6
20260507145503 58 0 1.0 8.0 0.00 0.03 0.00 75 1012.5
20260507145003 58 355 0.0 5.0 0.00 0.03 0.00 76 1012.5
20260507144503 58 355 1.0 5.0 0.00 0.03 0.00 75 1012.5
20260507144003 59 2 2.0 3.0 0.00 0.03 0.00 74 1012.5
20260507143503 58 0 0.0 9.0 0.00 0.03 0.00 75 1012.4
20260507143004 58 353 4.0 9.0 0.00 0.03 0.00 74 1012.3
20260507142503 59 357 1.0 8.0 0.00 0.03 0.00 74 1012.4
20260507142003 59 356 3.0 10.0 0.00 0.03 0.00 73 1012.5
20260507141503 59 324 3.0 10.0 0.00 0.03 0.00 74 1012.4
20260507140503 59 4 2.0 6.0 0.00 0.03 0.00 73 1012.2
20260507140003 59 359 2.0 6.0 0.00 0.03 0.00 73 1012.0
20260507135503 59 355 1.0 10.0 0.00 0.03 0.00 73 1012.3
20260507135003 59 16 2.0 10.0 0.00 0.03 0.00 73 1012.5
20260507134502 59 34 2.0 9.0 0.00 0.03 0.00 74 1012.7
20260507134003 59 347 4.0 9.0 0.00 0.03 0.00 74 1012.7
20260507133503 59 11 1.0 6.0 0.00 0.03 0.00 75 1012.7
20260507133003 59 355 1.0 6.0 0.00 0.03 0.00 75 1012.6
20260507132503 59 345 2.0 6.0 0.00 0.04 0.00 74 1012.6
20260507132004 59 6 2.0 8.0 0.00 0.04 0.00 74 1012.6
20260507131503 59 1 3.0 8.0 0.00 0.04 0.00 74 1012.8
20260507131004 60 358 2.0 8.0 0.00 0.04 0.00 74 1012.8
20260507130003 59 352 2.0 9.0 0.00 0.04 0.00 75 1012.4
20260507125503 59 4 3.0 9.0 0.00 0.04 0.00 76 1012.5
20260507125003 59 341 1.0 5.0 0.00 0.04 0.00 76 1012.5
20260507124503 59 2 2.0 6.0 0.00 0.04 0.00 76 1012.5
20260507124002 59 16 2.0 6.0 0.00 0.04 0.00 76 1012.5
20260507123503 59 12 1.0 8.0 0.00 0.04 0.00 77 1012.5
20260507123004 59 356 2.0 10.0 0.00 0.04 0.00 77 1012.5
20260507122503 59 17 3.0 10.0 0.00 0.04 0.00 76 1012.6
20260507122004 59 358 3.0 10.0 0.00 0.04 0.00 76 1012.6
20260507121503 59 352 3.0 6.0 0.00 0.04 0.00 77 1012.5
20260507121004 59 10 2.0 5.0 0.00 0.04 0.00 77 1012.5
20260507120503 59 6 2.0 3.0 0.00 0.04 0.00 77 1012.7
20260507120004 59 10 2.0 3.0 0.00 0.04 0.00 77 1012.5
20260507115507 59 350 1.0 3.0 0.00 0.04 0.00 78 1012.6
20260507115003 59 342 1.0 5.0 0.00 0.04 0.00 79 1012.4
20260507113004 59 345 0.0 3.0 0.00 0.04 0.00 78 1012.3
20260507112503 59 0 0.0 3.0 0.00 0.04 0.00 78 1012.0
20260507112004 59 339 1.0 8.0 0.00 0.04 0.00 78 1012.0
20260507111503 59 341 1.0 8.0 0.00 0.04 0.00 78 1011.9
20260507111003 59 354 2.0 8.0 0.00 0.04 0.00 78 1011.7
20260507110503 59 12 1.0 3.0 0.00 0.04 0.00 79 1011.6
20260507110004 59 19 1.0 3.0 0.00 0.04 0.00 78 1011.7
20260507105503 59 15 1.0 3.0 0.00 0.04 0.00 78 1011.5
20260507104504 59 0 1.0 3.0 0.00 0.04 0.00 78 1011.6
20260507104004 59 19 0.0 2.0 0.00 0.04 0.00 78 1011.8
20260507103502 59 17 0.0 3.0 0.00 0.04 0.00 78 1011.7
20260507103004 59 17 1.0 3.0 0.00 0.04 0.00 78 1011.7
20260507102503 59 32 0.0 2.0 0.00 0.04 0.00 78 1011.4
20260507102003 59 53 0.0 2.0 0.00 0.04 0.00 79 1011.5
20260507101504 59 53 0.0 3.0 0.00 0.04 0.00 79 1011.4
20260507101003 60 74 0.0 3.0 0.00 0.04 0.00 79 1011.5
20260507100503 60 63 1.0 3.0 0.00 0.04 0.00 79 1011.5
20260507100003 60 49 1.0 3.0 0.00 0.04 0.00 79 1011.4
20260507095503 60 59 0.0 3.0 0.00 0.04 0.00 79 1011.5
20260507095003 60 64 0.0 3.0 0.00 0.04 0.00 78 1011.7
20260507094003 60 56 1.0 6.0 0.00 0.04 0.00 78 1011.6
20260507093004 60 63 1.0 3.0 0.00 0.04 0.00 79 1011.7
20260507092503 60 74 0.0 2.0 0.00 0.04 0.00 79 1011.8
20260507092003 60 23 0.0 2.0 0.00 0.04 0.00 80 1011.7
20260507091503 60 16 0.0 3.0 0.00 0.04 0.00 79 1011.5
20260507091003 60 16 0.0 3.0 0.00 0.04 0.00 78 1011.3
20260507090503 60 355 0.0 3.0 0.00 0.04 0.00 78 1010.9
20260507090005 60 356 1.0 5.0 0.00 0.04 0.00 79 1010.9
20260507085503 60 354 1.0 5.0 0.00 0.04 0.00 79 1011.0
20260507085003 61 21 2.0 5.0 0.00 0.04 0.00 80 1011.3
20260507084504 61 325 0.0 2.0 0.00 0.04 0.00 79 1011.2
20260507084003 61 336 0.0 2.0 0.00 0.04 0.00 79 1011.4
20260507083503 61 335 0.0 2.0 0.00 0.04 0.00 79 1011.7
20260507083005 62 335 0.0 1.0 0.00 0.04 0.00 79 1011.6
20260507082503 62 335 0.0 2.0 0.00 0.04 0.00 79 1011.7
20260507082003 62 335 1.0 2.0 0.00 0.04 0.00 79 1011.5
20260507081503 62 335 0.0 1.0 0.00 0.04 0.00 79 1011.4
20260507081003 62 335 0.0 0.0 0.00 0.04 0.00 79 1011.6
20260507080503 62 335 0.0 0.0 0.00 0.04 0.00 79 1011.6
20260507080003 62 335 0.0 3.0 0.00 0.04 0.00 78 1011.5
20260507075003 62 335 1.0 6.0 0.00 0.04 0.00 77 1011.6
20260507072503 62 286 5.0 9.0 0.00 0.04 0.00 79 1011.3
20260507072002 62 344 1.0 5.0 0.00 0.04 0.00 80 1011.2
20260507071504 62 355 2.0 3.0 0.00 0.04 0.00 82 1011.3
20260507070504 63 355 0.0 1.0 0.00 0.04 0.00 84 1010.9
20260507070008 63 355 0.0 3.0 0.00 0.04 0.00 83 1011.1
20260507065503 63 355 0.0 3.0 0.00 0.04 0.00 83 1011.2
20260507064003 63 0 0.0 3.0 0.00 0.04 0.00 87 1011.4
20260507063503 63 355 1.0 3.0 0.00 0.04 0.00 87 1011.4
20260507063003 63 355 0.0 0.0 0.00 0.04 0.00 88 1011.5
20260507062004 63 355 0.0 0.0 0.00 0.04 0.00 88 1011.2
20260507061503 63 355 0.0 0.0 0.00 0.04 0.00 89 1011.0
20260507061003 63 344 0.0 0.0 0.00 0.04 0.00 91 1010.8
20260507060503 63 344 0.0 0.0 0.00 0.04 0.00 90 1010.9
20260507060003 63 344 0.0 0.0 0.00 0.04 0.00 91 1011.2
20260507055503 63 344 0.0 0.0 0.00 0.04 0.00 91 1011.4
20260507054503 63 344 0.0 0.0 0.00 0.04 0.00 91 1011.3
20260507054004 63 344 0.0 0.0 0.00 0.04 0.00 91 1011.7
20260507053503 63 344 0.0 1.0 0.00 0.04 0.00 91 1011.8
20260507052504 63 355 0.0 3.0 0.00 0.04 0.00 90 1011.9
20260507052003 64 341 1.0 3.0 0.00 0.04 0.00 90 1012.0
20260507051503 64 292 1.0 3.0 0.00 0.04 0.00 89 1011.8
20260507051003 64 238 0.0 1.0 0.00 0.04 0.00 89 1011.5
20260507050503 64 238 0.0 3.0 0.00 0.04 0.00 89 1011.3
20260507050003 64 238 0.0 3.0 0.00 0.04 0.00 88 1011.3
20260507045003 64 243 1.0 3.0 0.00 0.04 0.00 87 1010.9
20260507044504 64 255 1.0 3.0 0.00 0.04 0.00 87 1011.0
20260507044003 64 303 0.0 3.0 0.00 0.04 0.00 86 1010.8
20260507043503 64 234 1.0 5.0 0.00 0.04 0.00 86 1010.7
20260507043003 65 241 2.0 6.0 0.00 0.04 0.00 86 1010.8
20260507042503 65 181 3.0 6.0 0.00 0.04 0.00 86 1010.9
20260507042003 65 184 2.0 7.0 0.00 0.04 0.00 85 1010.9
20260507041003 65 182 2.0 7.0 0.00 0.04 0.00 85 1011.3
20260507040003 65 190 1.0 5.0 0.00 0.04 0.00 84 1011.1
20260507035005 65 180 3.0 7.0 0.00 0.04 0.04 84 1011.2
20260507034004 65 191 4.0 9.0 0.01 0.04 0.04 83 1011.8
20260507033503 65 220 3.0 10.0 0.01 0.04 0.04 83 1011.9
20260507033004 65 194 6.0 10.0 0.01 0.04 0.04 83 1012.1
20260507032503 65 192 4.0 7.0 0.01 0.04 0.04 83 1012.4
20260507031503 65 204 3.0 6.0 0.01 0.04 0.04 83 1013.0
20260507030504 65 218 3.0 7.0 0.01 0.04 0.04 82 1012.8
20260507030004 65 185 3.0 7.0 0.01 0.04 0.04 82 1012.4
20260507025503 65 190 3.0 7.0 0.02 0.04 0.04 82 1012.4
20260507025004 65 217 1.0 8.0 0.02 0.04 0.04 83 1012.6
20260507024503 65 237 3.0 8.0 0.01 0.03 0.03 81 1012.4
20260507024003 66 223 2.0 8.0 0.01 0.03 0.03 80 1012.2
20260507023503 66 218 2.0 9.0 0.01 0.03 0.03 79 1012.3
20260507022503 66 200 5.0 8.0 0.01 0.03 0.03 81 1012.6
20260507021503 66 250 2.0 3.0 0.01 0.03 0.03 80 1012.2
20260507021004 66 301 0.0 9.0 0.01 0.03 0.03 79 1011.8
20260507020004 67 189 4.0 9.0 0.01 0.03 0.03 77 1011.5
20260507015503 68 226 5.0 13.0 0.00 0.02 0.02 75 1011.9
20260507015003 69 218 6.0 13.0 0.00 0.02 0.02 73 1011.2
20260507014504 69 191 9.0 12.0 0.00 0.02 0.02 73 1011.3
20260507013503 70 201 5.0 12.0 0.00 0.02 0.02 72 1010.7
20260507013003 70 179 4.0 10.0 0.00 0.02 0.02 72 1010.7
20260507012503 69 213 4.0 10.0 0.00 0.02 0.02 73 1010.9
20260507012003 69 219 3.0 7.0 0.00 0.02 0.02 74 1010.8
20260507011504 68 175 2.0 6.0 0.00 0.02 0.02 75 1011.0
20260507011003 68 261 0.0 7.0 0.00 0.02 0.02 76 1011.2
20260507010503 68 225 5.0 7.0 0.00 0.02 0.02 75 1011.4
20260507010003 68 211 4.0 7.0 0.00 0.02 0.02 76 1011.4
20260507005503 67 193 2.0 5.0 0.00 0.02 0.02 77 1011.3
20260507005004 67 289 0.0 2.0 0.00 0.02 0.02 78 1011.2
20260507004503 68 5 0.0 2.0 0.00 0.02 0.02 76 1011.2
20260507004003 69 5 0.0 3.0 0.00 0.02 0.02 75 1011.3
20260507003503 69 0 0.0 3.0 0.00 0.02 0.02 72 1011.1
20260507003004 70 346 1.0 5.0 0.00 0.02 0.02 71 1011.0
20260507002504 70 187 2.0 8.0 0.00 0.02 0.02 71 1010.9
20260507002003 70 189 5.0 8.0 0.00 0.02 0.02 70 1011.0
20260507001503 70 240 2.0 7.0 0.00 0.02 0.02 70 1011.1
20260507001004 70 238 3.0 9.0 0.00 0.02 0.02 69 1010.9
20260507000504 71 214 3.0 9.0 0.00 0.02 0.02 68 1010.4
20260507000004 71 197 3.0 8.0 0.00 0.02 0.02 69 1010.3
20260506235004 71 187 5.0 9.0 0.00 0.02 0.02 67 1010.3
20260506234503 71 210 4.0 9.0 0.00 0.02 0.02 67 1010.5
20260506234003 71 199 4.0 12.0 0.00 0.02 0.02 68 1010.6
20260506233503 71 181 5.0 12.0 0.00 0.02 0.02 68 1010.7
20260506233004 71 230 2.0 6.0 0.00 0.02 0.02 68 1010.8
20260506232503 72 204 3.0 8.0 0.00 0.02 0.02 67 1010.7
20260506232004 72 245 4.0 8.0 0.00 0.02 0.02 66 1010.5
20260506231504 72 202 5.0 8.0 0.00 0.02 0.02 66 1010.5
20260506231003 72 195 4.0 9.0 0.00 0.02 0.02 67 1010.2
20260506230004 72 220 4.0 9.0 0.00 0.02 0.02 66 1010.5
20260506225503 72 204 4.0 13.0 0.00 0.02 0.02 67 1010.6
20260506225003 72 194 3.0 13.0 0.00 0.02 0.02 67 1010.7
20260506224504 72 194 4.0 8.0 0.00 0.02 0.02 68 1010.8
20260506223503 72 215 2.0 7.0 0.00 0.02 0.02 68 1011.0
20260506222503 72 213 3.0 7.0 0.00 0.02 0.02 68 1010.8
20260506221504 72 185 2.0 7.0 0.00 0.02 0.02 69 1010.6
20260506221003 72 188 3.0 12.0 0.00 0.02 0.02 69 1010.8
20260506220003 72 222 5.0 14.0 0.00 0.02 0.02 66 1010.8
20260506215503 73 222 6.0 14.0 0.00 0.02 0.02 65 1010.4